Location: Moscow
(55.7500°N, 37.5830°E)
Time: 05:32:19
(UTC+03:00)

Envisat - Pass Details

Date: 01 November 2021
Orbit: 764 x 766 km, 98.2° (Epoch: 28 November)

Event Time Altitude Azimuth Distance (km) Brightness Sun altitude
Rises 05:36:32 0° 16° (NNE) 3,247 6.5 -17.1°
Reaches altitude 10° 05:38:53 10° 20° (NNE) 2,316 5.7 -16.7°
Maximum altitude 05:43:58 65° 102° (ESE) 843 3.4 -16.0°
Drops below altitude 10° 05:49:00 10° 185° (S) 2,298 5.5 -15.3°
Sets 05:51:19 0° 188° (S) 3,220 6.2 -15.0°
